TimeCDT,TemperatureF,Dew PointF,Humidity,Sea Level PressureIn,VisibilityMPH,Wind Direction,Wind SpeedMPH,Gust SpeedMPH,PrecipitationIn,Events,Conditions,WindDirDegrees,DateUTC
12:53 AM,34.0,28.0,79,29.82,10.0,ESE,4.6,-,N/A,,Overcast,110,2013-03-18 05:53:00
1:53 AM,33.1,28.9,85,29.81,8.0,Calm,Calm,-,N/A,,Overcast,0,2013-03-18 06:53:00
2:16 AM,33.8,28.4,81,29.77,8.0,Calm,Calm,-,N/A,,Overcast,0,2013-03-18 07:16:00
2:39 AM,33.8,30.2,87,29.75,5.0,East,5.8,-,N/A,,Overcast,90,2013-03-18 07:39:00
2:53 AM,32.0,30.0,92,29.77,6.0,East,4.6,-,N/A,,Overcast,100,2013-03-18 07:53:00
3:10 AM,32.0,30.2,93,29.74,7.0,East,4.6,-,N/A,,Overcast,90,2013-03-18 08:10:00
3:37 AM,32.0,30.2,93,29.74,6.0,Calm,Calm,-,N/A,,Overcast,0,2013-03-18 08:37:00
3:53 AM,32.0,30.0,92,29.77,6.0,Calm,Calm,-,N/A,,Overcast,0,2013-03-18 08:53:00
4:20 AM,32.0,30.2,93,29.74,5.0,Calm,Calm,-,0.00,,Overcast,0,2013-03-18 09:20:00
4:37 AM,32.0,30.2,93,29.74,6.0,SW,3.5,-,0.00,,Overcast,230,2013-03-18 09:37:00
4:53 AM,32.0,30.0,92,29.77,2.0,West,4.6,-,0.01,Snow,Light Snow,270,2013-03-18 09:53:00
5:04 AM,32.0,30.2,93,29.74,1.5,West,3.5,-,0.01,Snow,Light Snow,280,2013-03-18 10:04:00
5:25 AM,32.0,30.2,93,29.74,1.0,West,3.5,-,0.03,Snow,Light Snow,280,2013-03-18 10:25:00
5:46 AM,32.0,30.2,93,29.73,2.5,Calm,Calm,-,0.03,,Overcast,0,2013-03-18 10:46:00
5:53 AM,32.0,30.9,96,29.76,2.0,Calm,Calm,-,0.03,Snow,Light Snow,0,2013-03-18 10:53:00
6:18 AM,32.0,30.2,93,29.74,3.0,West,4.6,-,0.00,,Overcast,280,2013-03-18 11:18:00
6:26 AM,32.0,30.2,93,29.74,3.0,West,4.6,-,0.00,,Overcast,280,2013-03-18 11:26:00
6:53 AM,32.0,30.0,92,29.78,2.5,West,5.8,-,0.00,Snow,Light Snow,270,2013-03-18 11:53:00
7:02 AM,32.0,30.2,93,29.74,3.0,West,6.9,-,0.00,Snow,Light Snow,270,2013-03-18 12:02:00
7:53 AM,33.1,30.9,92,29.77,5.0,WSW,8.1,-,0.00,,Overcast,250,2013-03-18 12:53:00
8:23 AM,33.8,30.2,87,29.75,6.0,WSW,10.4,-,N/A,,Overcast,240,2013-03-18 13:23:00
8:53 AM,33.1,30.9,92,29.78,4.0,West,11.5,-,N/A,,Overcast,260,2013-03-18 13:53:00
9:35 AM,33.8,32.0,93,29.76,6.0,West,12.7,-,N/A,,Overcast,270,2013-03-18 14:35:00
9:53 AM,35.1,32.0,89,29.80,6.0,West,15.0,-,N/A,,Overcast,280,2013-03-18 14:53:00
10:16 AM,37.4,33.8,87,29.77,8.0,WNW,18.4,26.5,N/A,,Mostly Cloudy,290,2013-03-18 15:16:00
10:35 AM,39.2,32.0,75,29.77,10.0,WNW,26.5,32.2,N/A,,Mostly Cloudy,300,2013-03-18 15:35:00
10:53 AM,37.9,30.0,73,29.81,10.0,NW,20.7,33.4,N/A,,Mostly Cloudy,320,2013-03-18 15:53:00
11:09 AM,37.4,28.4,70,29.78,10.0,NW,23.0,33.4,N/A,,Partly Cloudy,310,2013-03-18 16:09:00
11:53 AM,39.0,23.0,53,29.83,10.0,NW,28.8,39.1,N/A,,Clear,320,2013-03-18 16:53:00
12:53 PM,39.9,25.0,55,29.84,10.0,WNW,24.2,32.2,N/A,,Partly Cloudy,300,2013-03-18 17:53:00
1:53 PM,41.0,24.1,51,29.85,10.0,WNW,27.6,34.5,N/A,,Mostly Cloudy,300,2013-03-18 18:53:00
2:53 PM,39.0,21.9,50,29.87,10.0,WNW,27.6,39.1,N/A,,Partly Cloudy,300,2013-03-18 19:53:00
3:53 PM,39.0,18.0,43,29.88,10.0,West,32.2,39.1,N/A,,Clear,280,2013-03-18 20:53:00
4:53 PM,36.0,18.0,48,29.91,10.0,NW,25.3,39.1,N/A,,Partly Cloudy,310,2013-03-18 21:53:00
5:53 PM,35.1,17.1,48,29.94,10.0,WNW,23.0,34.5,N/A,,Clear,300,2013-03-18 22:53:00
6:53 PM,32.0,17.1,54,29.97,10.0,WNW,18.4,-,N/A,,Clear,300,2013-03-18 23:53:00
7:53 PM,28.9,17.1,61,29.99,10.0,NW,12.7,-,N/A,,Clear,310,2013-03-19 00:53:00
8:53 PM,28.9,16.0,58,30.01,10.0,WNW,13.8,-,N/A,,Clear,300,2013-03-19 01:53:00
9:53 PM,27.0,17.1,66,30.03,10.0,WNW,8.1,-,N/A,,Clear,290,2013-03-19 02:53:00
10:53 PM,25.0,16.0,69,30.03,10.0,WNW,8.1,-,N/A,,Clear,300,2013-03-19 03:53:00
11:53 PM,24.1,16.0,71,30.04,10.0,WSW,8.1,-,N/A,,Clear,250,2013-03-19 04:53:00